Home   Weather   Chicago   Past weeks
Flag for USA

Past Weather in Chicago, Illinois, USA — Yesterday and Last 2 Weeks

Now
65 °F

Partly sunny.


Feels Like: 65 °F
Forecast: 54 / 42 °F
Wind: 14 mph from East

Location: Chicago Midway Airport

Current Time: Apr 3, 2020 at 4:12:39 pm

Latest Report: Apr 3, 2020 at 2:53 pm


Visibility: 10 mi

Pressure: 30.00 "Hg

Humidity: 42%

Dew Point: 41 °F

Location of ChicagoLocation

Past Weather in Chicago — Graph

°F

Chicago Temperature Yesterday

Maximum temperature yesterday: 57 °F (at 12:53 pm)
Minimum temperature yesterday: 32 °F (at 5:53 am)
Average temperature yesterday: 45 °F

High & Low Weather Summary for the Past Weeks

 TemperatureHumidityPressure
High69 °F (Apr 3, 1:53 pm)100% (Mar 19, 1:38 pm)30.64 "Hg (Mar 19, 1:38 pm)
Low28 °F (Mar 21, 7:53 pm)36% (Apr 3, 1:53 pm)29.44 "Hg (Mar 29, 5:53 am)
Average43 °F82%30.04 "Hg
* Reported Mar 19 1:38 pm — Apr 3 1:53 pm, Chicago. Weather by CustomWeather, © 2020

Note: Actual official high and low records may vary slightly from our data, if they occured in-between our weather recording intervals... More about our weather records

Chicago Weather History for the Previous 24 Hours

Scroll right to see more
 ConditionsComfort  
Time TempWeatherWind HumidityBarometerVisibility
1:53 pm
Fri, Apr 3
69 °FScattered clouds.9 mph36%30.01 "Hg10 mi
12:53 pm68 °FBroken clouds.9 mph39%30.03 "Hg10 mi
11:53 am66 °FPartly sunny.6 mph39%30.06 "Hg10 mi
10:53 am62 °FScattered clouds.7 mph44%30.08 "Hg10 mi
9:53 am55 °FPartly sunny.6 mph57%30.09 "Hg10 mi
8:53 am51 °FPartly sunny.5 mph66%30.09 "Hg10 mi
7:53 am49 °FBroken clouds.3 mph69%30.10 "Hg10 mi
6:53 am47 °FPartly sunny.6 mph74%30.09 "Hg10 mi
5:53 am47 °FMostly cloudy.3 mph77%30.09 "Hg10 mi
4:53 am46 °FOvercast.8 mph73%30.11 "Hg10 mi
3:53 am47 °FLight rain. Overcast.7 mph71%30.10 "Hg10 mi
2:53 am47 °FLight rain. Overcast.3 mph74%30.11 "Hg10 mi
1:53 am47 °FLight rain. Overcast.3 mph61%30.10 "Hg10 mi
12:53 am47 °FMostly cloudy.No wind54%30.11 "Hg10 mi
11:53 pm
Thu, Apr 2
47 °FMostly cloudy.5 mph54%30.11 "Hg10 mi
10:53 pm47 °FOvercast.5 mph54%30.11 "Hg10 mi
9:53 pm47 °FPartly cloudy.5 mph54%30.12 "Hg10 mi
8:53 pm47 °FPassing clouds.8 mph52%30.12 "Hg10 mi
7:53 pm49 °FPartly cloudy.9 mph48%30.13 "Hg10 mi
5:53 pm54 °FPartly sunny.9 mph38%30.13 "Hg10 mi
4:53 pm56 °FPartly sunny.13 mph39%30.11 "Hg10 mi
Weather by CustomWeather, © 2020

See weather overview

Advertising